Location: ??????
(55.6500°N, 37.8000°E)
Time: 14:46:29
(UTC+00:00)

SAR-Lupe-4 - Pass Details

Date: 14 April 2024
Orbit: 476 x 482 km, 98.1° (Epoch: 02 April)

Event Time Altitude Azimuth Distance (km) Brightness Sun altitude
Rises 00:30:32 0° 14° (NNE) 2,548 8.2 -14.7°
Reaches altitude 10° 00:32:36 10° 12° (NNE) 1,664 7.1 -14.5°
Maximum altitude 00:36:10 70° 289° (WNW) 514 3.5 -14.2°
Enters shadow 00:38:08 24° 210° (SSW) 1,019 4.6 -14.0°
